When you browse on this site, cookies collect data to enhance your experience and personalize the content and advertising you see.
Visit our Privacy Policy to learn more. By continuing to use the site, you agree to this use of cookies and data.

Hourly Weather Carahue

Today, 7 July, Tuesday

Time Temperature Precipitation Wind Pressure Humidity
00:00 +4°C° 0 mm 1 mps 759 mmHg 80%
01:00 +4°C° 0 mm 1 mps 759 mmHg 81%
02:00 +4°C° 0 mm 1 mps 759 mmHg 82%
03:00 +4°C° 0 mm 1 mps 758 mmHg 83%
04:00 +3°C° 0 mm 2 mps 758 mmHg 84%
05:00 +3°C° 0 mm 2 mps 758 mmHg 85%
06:00 +3°C° 0 mm 2 mps 758 mmHg 86%
07:00 +3°C° 0 mm 2 mps 758 mmHg 87%
08:00 +4°C° 0.1 mm 2 mps 758 mmHg 85%
09:00 +4°C° 0.1 mm 3 mps 758 mmHg 83%
10:00 +5°C° 0.1 mm 3 mps 758 mmHg 81%
11:00 +5°C° 0.3 mm 3 mps 758 mmHg 84%
12:00 +5°C° 0.3 mm 4 mps 757 mmHg 86%
13:00 +6°C° 0.3 mm 4 mps 756 mmHg 88%
14:00 +6°C° 0.4 mm 4 mps 756 mmHg 90%
15:00 +6°C° 0.4 mm 4 mps 755 mmHg 91%
16:00 +6°C° 0.4 mm 5 mps 755 mmHg 92%
17:00 +6°C° 5 mm 4 mps 755 mmHg 93%
18:00 +8°C° 5 mm 3 mps 755 mmHg 94%
19:00 +8°C° 5 mm 3 mps 755 mmHg 95%
20:00 +7°C° 0.8 mm 2 mps 756 mmHg 94%
21:00 +7°C° 0.8 mm 2 mps 756 mmHg 94%
22:00 +7°C° 0.8 mm 2 mps 757 mmHg 93%
23:00 +6°C° 0.4 mm 2 mps 757 mmHg 93%

Tomorrow, 8 July, Wednesday

Time Temperature Precipitation Wind Pressure Humidity
00:00 +6°C° 0.4 mm 2 mps 758 mmHg 92%
01:00 +6°C° 0.4 mm 2 mps 758 mmHg 92%
02:00 +6°C° 0.6 mm 2 mps 759 mmHg 92%
03:00 +6°C° 0.6 mm 2 mps 759 mmHg 92%
04:00 +4°C° 0.6 mm 3 mps 759 mmHg 92%
05:00 +5°C° 0.4 mm 2 mps 760 mmHg 92%
06:00 +5°C° 0.4 mm 2 mps 761 mmHg 92%
07:00 +5°C° 0.4 mm 2 mps 761 mmHg 93%
08:00 +6°C° 0.3 mm 2 mps 762 mmHg 90%
09:00 +7°C° 0.3 mm 2 mps 762 mmHg 88%
10:00 +9°C° 0.3 mm 2 mps 762 mmHg 85%
11:00 +9°C° 0.5 mm 3 mps 762 mmHg 84%
12:00 +9°C° 0.5 mm 3 mps 762 mmHg 83%
13:00 +9°C° 0.5 mm 3 mps 762 mmHg 82%
14:00 +9°C° 0.4 mm 3 mps 762 mmHg 84%
15:00 +8°C° 0.4 mm 3 mps 763 mmHg 86%
16:00 +8°C° 0.4 mm 2 mps 763 mmHg 87%
17:00 +8°C° 0.3 mm 2 mps 763 mmHg 89%
18:00 +7°C° 0.3 mm 2 mps 763 mmHg 90%
19:00 +7°C° 0.3 mm 2 mps 763 mmHg 92%
20:00 +7°C° 0.2 mm 2 mps 763 mmHg 93%
21:00 +6°C° 0.2 mm 2 mps 762 mmHg 93%
22:00 +5°C° 0.2 mm 3 mps 762 mmHg 94%
23:00 +5°C° 0.2 mm 3 mps 762 mmHg 94%

Day after tomorrow, 9 July, Thursday

Time Temperature Precipitation Wind Pressure Humidity
00:00 +5°C° 0.2 mm 3 mps 762 mmHg 94%
01:00 +5°C° 0.2 mm 3 mps 761 mmHg 94%
02:00 +5°C° 0.6 mm 3 mps 761 mmHg 94%
03:00 +6°C° 0.6 mm 4 mps 760 mmHg 95%
04:00 +6°C° 0.6 mm 4 mps 760 mmHg 95%
05:00 +6°C° 1.8 mm 4 mps 759 mmHg 95%
06:00 +6°C° 1.8 mm 5 mps 758 mmHg 95%
07:00 +7°C° 1.8 mm 5 mps 758 mmHg 95%
08:00 +7°C° 3.6 mm 5 mps 757 mmHg 96%
09:00 +8°C° 3.6 mm 5 mps 757 mmHg 96%
10:00 +9°C° 3.6 mm 5 mps 757 mmHg 96%
11:00 +9°C° 3.4 mm 5 mps 757 mmHg 96%
12:00 +10°C° 3.4 mm 5 mps 757 mmHg 95%
13:00 +12°C° 3.4 mm 4 mps 757 mmHg 95%
14:00 +11°C° 2.5 mm 4 mps 757 mmHg 96%
15:00 +11°C° 2.5 mm 3 mps 757 mmHg 97%
16:00 +10°C° 2.5 mm 2 mps 757 mmHg 98%
17:00 +10°C° 2.1 mm 2 mps 757 mmHg 98%
18:00 +11°C° 2.1 mm 1 mps 757 mmHg 98%
19:00 +11°C° 2.1 mm 1 mps 757 mmHg 99%
20:00 +11°C° 1.6 mm 1 mps 757 mmHg 99%
21:00 +11°C° 1.6 mm 1 mps 757 mmHg 99%
22:00 +11°C° 1.6 mm 1 mps 757 mmHg 98%
23:00 +11°C° 0.8 mm 1 mps 757 mmHg 99%

10 July, Friday

Time Temperature Precipitation Wind Pressure Humidity
00:00 +11°C° 0.8 mm 1 mps 757 mmHg 99%
01:00 +11°C° 0.8 mm 1 mps 758 mmHg 99%
02:00 +11°C° 0.5 mm 1 mps 758 mmHg 99%
03:00 +10°C° 0.5 mm 0 mps 758 mmHg 99%
04:00 +10°C° 0.5 mm 0 mps 758 mmHg 99%
05:00 +10°C° 0.1 mm 0 mps 758 mmHg 98%
06:00 +11°C° 0.1 mm 1 mps 758 mmHg 98%
07:00 +11°C° 0.1 mm 1 mps 758 mmHg 98%
08:00 +11°C° 0.2 mm 1 mps 758 mmHg 98%
09:00 +12°C° 0.2 mm 1 mps 758 mmHg 98%
10:00 +12°C° 0.2 mm 2 mps 758 mmHg 98%
11:00 +13°C° 0.7 mm 2 mps 758 mmHg 97%
12:00 +12°C° 0.7 mm 3 mps 757 mmHg 97%
13:00 +12°C° 0.7 mm 4 mps 757 mmHg 97%
14:00 +13°C° 0.5 mm 4 mps 756 mmHg 96%
15:00 +13°C° 0.5 mm 5 mps 755 mmHg 95%
16:00 +13°C° 0.5 mm 6 mps 754 mmHg 95%
17:00 +13°C° 0.8 mm 6 mps 754 mmHg 94%
18:00 +12°C° 0.8 mm 7 mps 754 mmHg 93%
19:00 +12°C° 0.8 mm 7 mps 754 mmHg 93%
20:00 +12°C° 1.6 mm 7 mps 753 mmHg 93%
21:00 +12°C° 1.6 mm 8 mps 753 mmHg 93%
22:00 +12°C° 1.6 mm 8 mps 753 mmHg 93%
23:00 +12°C° 2 mm 8 mps 753 mmHg 93%

11 July, Saturday

Time Temperature Precipitation Wind Pressure Humidity
00:00 +12°C° 2 mm 8 mps 753 mmHg 93%
01:00 +12°C° 2 mm 8 mps 753 mmHg 94%
02:00 +11°C° 1.9 mm 7 mps 753 mmHg 93%
03:00 +12°C° 1.9 mm 5 mps 754 mmHg 93%
04:00 +11°C° 1.9 mm 4 mps 754 mmHg 92%
05:00 +10°C° 0.1 mm 4 mps 755 mmHg 91%
06:00 +10°C° 0.1 mm 4 mps 755 mmHg 90%
07:00 +8°C° 0.1 mm 4 mps 756 mmHg 89%
08:00 +8°C° 0.1 mm 4 mps 757 mmHg 87%
09:00 +8°C° 0.1 mm 4 mps 758 mmHg 85%
10:00 +10°C° 0.1 mm 3 mps 758 mmHg 83%
11:00 +10°C° 0.1 mm 3 mps 759 mmHg 81%
12:00 +10°C° 0.1 mm 3 mps 759 mmHg 79%
13:00 +10°C° 0.1 mm 3 mps 759 mmHg 77%
14:00 +9°C° 0.2 mm 3 mps 760 mmHg 80%
15:00 +9°C° 0.2 mm 2 mps 760 mmHg 82%
16:00 +9°C° 0.2 mm 2 mps 761 mmHg 85%
17:00 +9°C° 0 mm 1 mps 761 mmHg 86%
18:00 +8°C° 0 mm 1 mps 762 mmHg 87%
19:00 +7°C° 0 mm 1 mps 762 mmHg 89%
20:00 +7°C° 0 mm 1 mps 762 mmHg 89%
21:00 +7°C° 0 mm 1 mps 762 mmHg 89%
22:00 +6°C° 0 mm 1 mps 762 mmHg 90%
23:00 +5°C° 0 mm 0 mps 762 mmHg 90%

12 July, Sunday

Time Temperature Precipitation Wind Pressure Humidity
00:00 +5°C° 0 mm 0 mps 762 mmHg 90%
01:00 +5°C° 0 mm 0 mps 762 mmHg 90%
02:00 +5°C° 0 mm 0 mps 762 mmHg 90%
03:00 +5°C° 0 mm 0 mps 761 mmHg 90%
04:00 +5°C° 0 mm 0 mps 761 mmHg 90%
05:00 +6°C° 0 mm 1 mps 761 mmHg 91%
06:00 +6°C° 0 mm 1 mps 761 mmHg 91%
07:00 +6°C° 0 mm 1 mps 761 mmHg 91%
08:00 +7°C° 0 mm 1 mps 761 mmHg 89%
09:00 +8°C° 0 mm 1 mps 761 mmHg 86%
10:00 +9°C° 0 mm 1 mps 761 mmHg 84%
11:00 +9°C° 0 mm 1 mps 761 mmHg 83%
12:00 +10°C° 0 mm 1 mps 760 mmHg 82%
13:00 +10°C° 0 mm 1 mps 760 mmHg 81%
14:00 +9°C° 0.4 mm 1 mps 759 mmHg 85%
15:00 +8°C° 0.4 mm 1 mps 759 mmHg 89%
16:00 +8°C° 0.4 mm 1 mps 759 mmHg 94%
17:00 +8°C° 0.3 mm 1 mps 759 mmHg 94%
18:00 +8°C° 0.3 mm 1 mps 759 mmHg 94%
19:00 +6°C° 0.3 mm 2 mps 759 mmHg 94%
20:00 +6°C° 0.6 mm 2 mps 759 mmHg 95%
21:00 +6°C° 0.6 mm 2 mps 758 mmHg 96%
22:00 +6°C° 0.6 mm 2 mps 758 mmHg 97%
23:00 +7°C° 0.7 mm 2 mps 758 mmHg 97%
Show more